#timestamp,LO_Frequency,Hit,StdDev 
1600329615.3,286046998.7,N
1600329635.2,286046999.7,N
1600329655.9,286046998.7,N
1600329675.7,286046999.4,N
1600329695.6,286046998.7,N
1600329715.4,286046998.1,N
1600329735.2,286047000.8,N
1600329755.1,286047002.4,N
1600329756.0,286047002.4,N
1600329775.8,286047001.5,N
1600329795.7,286047002.1,N
1600329815.5,286047002.7,N
1600329835.3,286047000.2,N
1600329855.2,286046999.8,N
1600329875.0,286047001.2,N
1600329875.9,286047001.2,N
1600329895.8,286047000.3,N
1600329915.6,286047000.3,N
1600329935.4,286047004.4,Y
1600329955.3,286047000.2,P
1600329975.1,286047003.8,P
1600329995.8,286047005.5,P
1600330015.7,286047001.8,N
1600330035.5,286047001.6,N
1600330055.4,286047003.4,N
1600330075.2,286047003.6,N
1600330095.0,286047005.6,Y
1600330095.9,286047005.6,P
1600330115.8,286047004.3,N
1600330135.6,286047005.4,P
1600330155.5,286047003.2,N
1600330175.3,286047001.6,N
1600330195.1,286047001.6,N
1600330215.9,286047000.4,N
1600330235.7,286047001.9,N
1600330255.5,286046998.6,N
1600330275.4,286047002.7,N
1600330295.2,286047001.5,N
1600330315.1,286047002.3,N
1600330316.0,286047002.3,N
1600330335.8,286047001.8,N
1600330355.6,286047003.1,N
1600330375.5,286047002.2,N
1600330395.3,286047002.6,N
1600330415.1,286046998.9,N
1600330435.9,286047000.7,N
1600330455.7,286047004.2,N
1600330475.6,286047003.9,N
1600330495.4,286047004.4,N
1600330515.2,286047004.1,N
1600330535.1,286047002.8,N
1600330536.0,286047002.8,N
1600330555.8,286047001.1,N
1600330575.7,286047000.6,N
1600330595.5,286047002.6,N
1600330615.3,286047003.9,N
1600330635.2,286047001.8,N
1600330655.9,286047002.6,N
1600330675.7,286047000.8,N
1600330695.6,286047001.2,N
1600330715.4,286047000.5,N
1600330735.3,286047005.9,Y
1600330755.1,286047004.1,P
1600330756.0,286047004.1,P
1600330775.8,286047001.4,N
1600330795.7,286047004.4,Y
1600330815.5,286047002.5,P
1600330835.4,286047001.7,P
1600330855.2,286047003.8,P
1600330875.0,286047002.7,Y
1600330875.9,286047002.7,P
1600330895.8,286046997.8,P
1600330915.6,286046997.0,N
1600330935.4,286046996.7,N
1600330955.3,286046997.1,N
1600330975.1,286046996.0,N
1600330995.9,286046995.1,N
1600331015.7,286046995.6,N
1600331035.5,286046996.3,N
1600331055.4,286046995.7,N
1600331075.2,286046993.9,N
1600331095.0,286046994.5,N
1600331096.0,286046994.5,N
1600331115.8,286046994.0,N
1600331165.7,286046993.8,E
1600331175.6,286046997.8,N
1600331195.4,286047000.9,P
1600331215.3,286046997.1,N
1600331235.1,286046995.3,N
1600331236.0,286046995.3,N
1600331255.8,286046999.2,N
1600331275.7,286046998.4,N
1600331295.5,286046997.0,N
1600331315.3,286046997.7,N
1600331335.2,286046995.0,N
1600331355.0,286046995.9,N
1600331355.9,286046995.9,N
1600331375.8,286046993.8,Y
1600331395.6,286046998.4,P
1600331415.4,286046999.5,N
1600331435.3,286046998.5,N
1600331455.1,286047001.2,N
1600331475.9,286046996.9,N
1600331495.7,286046998.2,N
1600331515.5,286046999.2,N
1600331535.4,286046995.5,Y
1600331555.2,286046998.7,P
1600331575.0,286046996.5,P
1600331575.9,286046996.5,P
1600331595.8,286046997.3,N
1600331615.6,286046996.3,Y
1600331635.5,286046997.3,P
1600331655.3,286046997.8,P
1600331675.1,286046995.4,P
1600331695.9,286046997.0,Y
1600331715.7,286046998.5,P
1600331735.6,286047001.5,N
1600331755.4,286047004.1,N
1600331775.2,286047003.6,N
1600331795.1,286047003.4,N
1600331796.0,286047003.4,N
1600331815.8,286047005.8,N
1600331835.6,286047003.0,N
1600331855.5,286047005.0,N
1600331875.3,286047009.2,Y
1600331895.2,286047003.3,P
1600331915.9,286047004.1,P
1600331935.7,286046999.7,N
1600331955.6,286047002.3,N
1600331975.4,286047002.5,N
1600331995.3,286047003.9,N
1600332015.1,286047001.3,N
1600332016.0,286047001.3,N
1600332035.8,286047003.8,N
1600332055.7,286047005.3,Y
1600332075.5,286047005.1,P
1600332095.3,286047006.9,P
1600332115.2,286047001.3,N
1600332135.0,286047003.7,N
1600332135.9,286047003.7,N
1600332155.8,286047005.7,Y
1600332175.6,286046998.6,P
1600332195.4,286046998.8,N
1600332215.3,286047000.3,N
1600332235.1,286047001.9,N
1600332255.9,286047004.0,N
1600332275.7,286047003.7,N
1600332295.5,286047002.3,N
1600332315.4,286047001.3,N
1600332335.2,286047001.9,N
1600332355.0,286046999.8,N
1600332355.9,286046999.8,N
1600332375.8,286047001.8,N
1600332395.6,286047001.5,N
1600332415.5,286046999.0,N
1600332435.3,286047011.9,Y
1600332455.1,286046999.4,P
1600332475.9,286046997.6,N
1600332495.7,286046996.0,N
1600332515.5,286046998.0,N
1600332535.4,286046997.4,N
1600332555.2,286046997.8,N
1600332575.1,286046996.6,N
1600332576.0,286046996.6,N
1600332595.8,286046994.9,Y
1600332615.6,286046997.9,P
1600332635.5,286046997.9,P
1600332655.3,286046998.9,P
1600332675.2,286046997.5,Y
1600332695.9,286046997.7,P
1600332715.7,286046997.8,P
1600332735.6,286046996.1,P
1600332755.4,286046995.9,Y
1600332775.2,286047000.6,P
1600332795.1,286047000.5,N
1600332796.0,286047000.5,N
1600332815.8,286047000.4,N
1600332835.7,286047000.2,N
1600332855.5,286047001.9,N
1600332875.3,286047003.8,Y
1600332895.2,286047005.5,P
1600332915.0,286047006.6,N
1600332915.9,286047006.6,N
1600332935.8,286047004.1,N
1600332955.6,286047003.6,N
1600332975.4,286047003.7,N
1600332995.3,286047003.4,N
1600333015.1,286047006.0,Y
1600333035.8,286047001.2,P
1600333055.7,286046999.2,N
1600333075.5,286046996.9,N
1600333095.4,286046996.8,N
1600333115.2,286047000.1,N
1600333135.0,286047001.8,N
1600333135.9,286047001.8,N
1600333155.8,286047000.4,N
1600333175.6,286047000.3,N
1600333195.5,286047001.2,N
